EW3561 Weather Reports


Display with metric or nautical units.
time (UTC)temp
F
wind
direction
speed
MPH
gust
MPH
rain 1hr
in
rain 24hr
in
rain mn
in
humidity
%
barometer
mb
20201127081830 68 104 0.0 2.0 0.00 0.00 0.00 92 1014.6
20201127080303 68 95 0.0 2.0 0.00 0.00 0.00 91 1014.8
20201127074634 68 95 0.0 0.0 0.00 0.00 0.00 91 1015.0
20201127073219 68 95 0.0 3.0 0.00 0.00 0.00 91 1014.5
20201127071714 68 119 0.0 2.0 0.00 0.00 0.00 91 1014.5
20201127070125 68 101 0.0 2.0 0.00 0.00 0.00 90 1014.7
20201127064713 68 111 0.0 3.0 0.00 0.00 0.00 90 1014.5
20201127063136 68 96 0.0 2.0 0.00 0.00 0.00 90 1014.7
20201127061722 68 83 0.0 1.0 0.00 0.00 0.00 89 1014.7
20201127060133 68 128 0.0 2.0 0.00 0.00 0.00 89 1014.7
20201127054636 68 99 0.0 2.0 0.00 0.00 0.00 88 1014.8
20201127053252 68 147 0.0 2.0 0.00 0.00 0.00 88 1014.8
20201127051609 68 121 0.0 2.0 0.00 0.00 0.00 88 1014.9
20201127050120 68 100 0.0 3.0 0.00 0.00 0.00 87 1015.0
20201127044559 68 106 0.0 3.0 0.00 0.00 0.00 87 1015.1
20201127043200 68 105 0.0 1.0 0.00 0.00 0.00 86 1015.3
20201127041626 68 136 0.0 3.0 0.00 0.00 0.00 86 1015.2
20201127040148 68 94 0.0 2.0 0.00 0.00 0.00 85 1015.2
20201127034653 68 105 1.0 6.0 0.00 0.00 0.00 85 1015.1
20201127033106 68 89 0.0 3.0 0.00 0.00 0.00 84 1015.3
20201127031655 68 90 0.0 2.0 0.00 0.00 0.00 83 1015.4
20201127030103 68 148 1.0 6.0 0.00 0.00 0.00 83 1015.6
20201127024615 68 94 1.0 3.0 0.00 0.00 0.00 82 1015.6
20201127023100 68 110 0.0 3.0 0.00 0.00 0.00 83 1015.6
20201127021643 69 86 0.0 3.0 0.00 0.00 0.00 83 1015.4
20201127020128 69 78 1.0 3.0 0.00 0.00 0.00 82 1015.2
20201127014559 69 157 0.0 6.0 0.00 0.00 0.00 82 1015.1
20201127013201 69 107 0.0 3.0 0.00 0.00 0.00 82 1015.1
20201127011622 69 122 0.0 2.0 0.00 0.00 0.00 82 1014.9
20201127010131 69 121 1.0 3.0 0.00 0.00 0.00 83 1014.8
20201127004558 69 157 1.0 2.0 0.00 0.00 0.00 83 1014.6
20201127003123 69 144 0.0 2.0 0.00 0.00 0.00 83 1014.4
20201127001603 69 105 0.0 4.0 0.00 0.00 0.00 83 1014.2
20201127000056 69 76 0.0 2.0 0.00 0.00 0.00 83 1014.1
20201126234709 69 65 0.0 2.0 0.00 0.00 0.00 82 1014.0
20201126233152 70 103 0.0 2.0 0.00 0.00 0.00 80 1013.8
20201126231546 71 192 0.0 4.0 0.00 0.00 0.00 79 1013.8
20201126230232 72 101 0.0 3.0 0.00 0.00 0.00 76 1013.7
20201126224553 73 158 0.0 3.0 0.00 0.00 0.00 74 1013.7
20201126223115 73 96 0.0 6.0 0.00 0.00 0.00 71 1013.6
20201126221647 74 86 2.0 6.0 0.00 0.00 0.00 69 1013.9
20201126220052 74 127 1.0 4.0 0.00 0.00 0.00 69 1013.9
20201126214630 74 78 1.0 4.0 0.00 0.00 0.00 70 1013.9
20201126213052 74 159 0.0 2.0 0.00 0.00 0.00 68 1014.3
20201126211618 75 153 0.0 3.0 0.00 0.00 0.00 67 1014.3
20201126210053 75 141 1.0 4.0 0.00 0.00 0.00 66 1014.3
20201126204555 74 176 1.0 6.0 0.00 0.00 0.00 67 1014.3
20201126203109 74 107 1.0 3.0 0.00 0.00 0.00 66 1014.3
20201126201601 73 125 1.0 3.0 0.00 0.00 0.00 66 1014.4
20201126200055 73 107 1.0 5.0 0.00 0.00 0.00 66 1014.5
20201126194555 73 107 1.0 3.0 0.00 0.00 0.00 64 1014.8
20201126193046 73 95 1.0 4.0 0.00 0.00 0.00 67 1015.0
20201126191548 73 88 0.0 3.0 0.00 0.00 0.00 63 1015.2
20201126190025 73 191 1.0 3.0 0.00 0.00 0.00 62 1015.4
20201126184511 72 75 2.0 5.0 0.00 0.00 0.00 64 1015.7
20201126183011 70 142 2.0 6.0 0.00 0.00 0.00 67 1016.0
20201126181713 68 146 1.0 4.0 0.00 0.00 0.00 67 1016.1
20201126180137 66 88 1.0 5.0 0.00 0.00 0.00 70 1016.6
20201126174555 65 51 1.0 3.0 0.00 0.00 0.00 73 1017.0
20201126173132 64 155 0.0 3.0 0.00 0.00 0.00 73 1017.6
20201126171608 64 94 0.0 3.0 0.00 0.00 0.00 74 1017.8
20201126170103 63 129 1.0 3.0 0.00 0.00 0.00 74 1017.8
20201126164606 62 26 0.0 3.0 0.00 0.00 0.00 76 1018.1
20201126163103 61 56 0.0 4.0 0.00 0.00 0.00 80 1018.5
20201126161611 59 71 0.0 4.0 0.00 0.00 0.00 82 1018.3
20201126160059 58 42 0.0 2.0 0.00 0.00 0.00 84 1018.5
20201126154654 56 107 1.0 3.0 0.00 0.00 0.00 85 1018.5
20201126153042 55 87 0.0 2.0 0.00 0.00 0.00 86 1018.5
20201126151547 54 90 0.0 3.0 0.00 0.00 0.00 88 1018.4
20201126150035 54 96 1.0 6.0 0.00 0.00 0.00 89 1018.3
20201126144542 52 64 1.0 7.0 0.00 0.00 0.00 90 1018.4
20201126143026 51 93 0.0 4.0 0.00 0.00 0.00 94 1018.6
20201126141532 50 75 1.0 3.0 0.00 0.00 0.00 94 1018.3
20201126140018 50 109 0.0 3.0 0.00 0.00 0.00 95 1018.3
20201126133130 49 85 0.0 1.0 0.00 0.00 0.00 95 1018.1
20201126131708 49 84 0.0 0.0 0.00 0.00 0.00 95 1017.9
20201126130253 49 84 0.0 1.0 0.00 0.00 0.00 95 1017.7
20201126124622 49 90 0.0 1.0 0.00 0.00 0.00 95 1017.6
20201126123314 49 86 0.0 2.0 0.00 0.00 0.00 95 1017.5
20201126121700 49 98 0.0 1.0 0.00 0.00 0.00 96 1017.3
20201126120226 48 50 0.0 2.0 0.00 0.00 0.00 98 1016.9
20201126114636 47 107 0.0 3.0 0.00 0.00 0.00 98 1017.1
20201126113219 47 111 0.0 2.0 0.00 0.00 0.00 98 1017.1
20201126111709 46 14 0.0 1.0 0.00 0.00 0.00 97 1017.1
20201126110135 46 14 0.0 1.0 0.00 0.00 0.00 97 1017.2
20201126104735 46 14 0.0 0.0 0.00 0.06 0.00 97 1017.0
20201126103328 46 14 0.0 0.0 0.00 0.06 0.00 96 1017.1
20201126101726 46 14 0.0 0.0 0.00 0.06 0.00 96 1017.1
20201126100138 46 14 0.0 1.0 0.00 0.06 0.00 96 1017.0
20201126094601 46 14 0.0 0.0 0.00 0.19 0.00 96 1017.0
20201126093112 46 14 0.0 0.0 0.00 0.19 0.00 96 1017.1
20201126091700 47 14 0.0 0.0 0.00 0.19 0.00 96 1017.0
20201126090228 47 14 0.0 0.0 0.00 0.19 0.00 96 1017.2
20201126084555 47 14 0.0 0.0 0.00 0.19 0.00 96 1017.1
20201126083154 47 14 0.0 1.0 0.00 0.19 0.00 96 1017.2